Regional Weather Roundup
Issued by NWS

Home | Current Version | Previous Version | Graphics & Text | Print | Product List | Glossary On
Versions: 1 2 3 4 5 6 7 8 9 10 11 12 13 14 15 16 17 18 19 20 21 22 23 24 25 26 27 28 29 30 31 32 33 34 35 36 37 38 39 40 41 42 43 44 45 46 47 48 49 50
654
ASUS43 KMKX 242021
RWRWI

WISCONSIN REGIONAL WEATHER ROUNDUP
NATIONAL WEATHER SERVICE MILWAUKEE/SULLIVAN WI
300 PM CDT MON JUL 24 2017

NOTE: "FAIR" INDICATES FEW OR NO CLOUDS BELOW 12,000 FEET WITH NO
SIGNIFICANT WEATHER AND/OR OBSTRUCTIONS TO VISIBILITY.

WIZ001-002-006>008-014>016-023>028-242100-
NORTHWEST WISCONSIN

CITY           SKY/WX    TMP DP  RH WIND       PRES   REMARKS
SUPERIOR ARPT  NOT AVBL
ASHLAND        SUNNY     75  62  64 N10       30.06S
HAYWARD        SUNNY     74  54  49 CALM      30.07F
SIREN          MOSUNNY   77  54  45 SE5       30.06S
CUMBERLAND     SUNNY     72  54  53 S5        30.08S
RICE LAKE      SUNNY     73  53  48 SE3       30.09S
CHETEK         SUNNY     73  58  59 MISG      30.08S
LADYSMITH      SUNNY     75  56  51 SW6       30.09F
EAU CLAIRE     SUNNY     74  56  53 S7        30.06F
MENOMONIE      SUNNY     74  59  58 SE5       30.07S
NEW RICHMOND   MOSUNNY   74  57  54 SE5       30.06F
OSCEOLA        PTSUNNY   76  59  55 S6        30.07F
$$

WIZ003>005-009-010-017-018-242100-
NORTH CENTRAL WISCONSIN

CITY           SKY/WX    TMP DP  RH WIND       PRES   REMARKS
MANITOWISH WTR SUNNY     74  52  45 NE5       30.09F
ARBOR VITAE    SUNNY     77  56  47 S7        30.08F
WOODRUFF       SUNNY     77  56  47 S7        30.08F
RHINELANDER    SUNNY     74  50  42 CALM      30.10S
EAGLE RIVER    SUNNY     75  48  37 E3        30.09F
LAND O LAKES   SUNNY     76  45  32 SE7       30.11S
PHILLIPS       CLOUDY    74  54  49 SE5       30.08S
TOMAHAWK         N/A     73  51  45 CALM      30.09S
MEDFORD        MOSUNNY   72  55  54 S3        30.09S
MERRILL        SUNNY     75  55  49 E5        30.09S
$$

WIZ029-030-035-036-043>047-242100-
CENTRAL WISCONSIN

CITY           SKY/WX    TMP DP  RH WIND       PRES   REMARKS
WAUSAU         SUNNY     75  53  46 VRB5      30.07S
MOSINEE        MOSUNNY   73  54  49 SE3       30.10S
MARSHFIELD     PTSUNNY   74  55  51 VRB6      30.08S
STEVENS POINT  MOSUNNY   72  53  50 E6        30.09S
WAUPACA        MOSUNNY   79  53  41 SE8       30.09S
WAUTOMA        MOSUNNY   75  57  53 E7        30.08F
WISC RAPIDS    MOSUNNY   76  56  49 VRB6      30.09S
CAMP DOUGLAS   MOSUNNY   75  59  57 S5        30.07F
$$

WIZ011>013-019>022-031-037>040-048>050-242100-
NORTHEAST WISCONSIN

CITY           SKY/WX    TMP DP  RH WIND       PRES   REMARKS
ANTIGO         SUNNY     73  52  48 S5        30.10S
SHAWANO        SUNNY     76  53  43 NE5       30.09S
OCONTO         SUNNY     73  50  44 E9        30.09R
STURGEON BAY     N/A     71  55  56 VRB6      30.09S
GREEN BAY      SUNNY     74  58  57 NE7       30.09S
MANITOWOC      SUNNY     70  51  51 NE10      30.10R
APPLETON       MOSUNNY   73  48  40 E6        30.08S
CLINTONVILLE   SUNNY    N/A N/A N/A E10       30.09S
OSHKOSH        MOSUNNY   74  57  55 MISG      30.08S
$$

WIZ032>034-041-042-053>061-242100-
SOUTHWEST WISCONSIN

CITY           SKY/WX    TMP DP  RH WIND       PRES   REMARKS
LA CROSSE      MOSUNNY   76  59  55 SE6       30.06F
SPARTA         MOSUNNY   73  58  60 CALM      30.08F
VIROQUA        MOSUNNY   71  60  67 CALM      30.08F
BOSCOBEL       PTSUNNY   75  59  57 VRB6      30.07S
PRAIRIE DU CHI PTSUNNY   75  56  52 E5        30.05F
PLATTEVILLE    CLOUDY    74  63  69 NE9       30.08R
$$

WIZ056-057-062-063-064-067-068-242100-
SOUTH CENTRAL WISCONSIN

CITY           SKY/WX    TMP DP  RH WIND       PRES   REMARKS
REEDSBURG      PTSUNNY   73  59  62 CALM      30.07F
BARABOO/DELLS  MOSUNNY   74  55  50 SE7       30.08S
LONE ROCK      MOSUNNY   74  58  57 CALM      30.07F
MINERAL POINT  CLOUDY    72  61  68 E6        30.09S
MADISON        PTSUNNY   75  58  55 NE6       30.07S
MIDDLETON      CLOUDY    74  58  57 E6        30.08S
WATERTOWN      MOSUNNY   73  58  59 E5        30.07S
MONROE         PTSUNNY   72  57  60 E5        30.07F
JANESVILLE     PTSUNNY   75  57  53 SE12      30.06S
$$

WIZ051-052-058>065-066-070>072-242100-
SOUTHEAST WISCONSIN

CITY           SKY/WX    TMP DP  RH WIND       PRES   REMARKS
MILWAUKEE      MOSUNNY   70  61  73 N14       30.08S
WAUKESHA       MOSUNNY   72  54  53 NE12G18   30.10R
MILWAUKEE/TIMM MOSUNNY   70  55  60 NE10      30.09S
RACINE         PTSUNNY   69  61  75 N15G22    30.09S
KENOSHA        PTSUNNY   70  59  68 NE10      30.08R
FOND DU LAC    MOSUNNY   74  51  44 VRB6      30.08S
SHEBOYGAN      SUNNY     71  55  56 NE13      30.09S
WEST BEND      SUNNY     70  55  60 E9        30.08S
JUNEAU         MOSUNNY   73  55  53 E7        30.09S
$$

LSZ147-162-242100-
LAKE SUPERIOR

STATION/POSITION TIME  TEMP    WIND        PRES    WAVE
                       AIR SEA DIR/SP/G            HT/PER
                 (UTC) (F)     (DEG/KT/KT) (MB)    (FT/S)
W MID LAKE BUOY  1950   54 53  250/  2/  2 1018.7F   0
DEVILS ISLAND    2000   59      60/  6/  7 1018.5F
PORT WING        1820   58     360/  9/ 10 1018.6
SAXON HARBOR     1940   64      40/  9/ 10 1017.9S
$$

LMZ867-665-643>646-242100-
LAKE MICHIGAN

STATION/POSITION TIME  TEMP    WIND        PRES    WAVE
                       AIR SEA DIR/SP/G            HT/PER
                 (UTC) (F)     (DEG/KT/KT) (MB)    (FT/S)
CHAMBERS ISLAND  1940   69      70/  7/ 10 1017.9S
S GREEN BAY BUOY 2000   69 72   50/ 10/ 12 1018.6
N MID LAKE BUOY  1950   66 67  100/  6/  8 1019.0S   1/ 4
NORTHPORT PIER   1940   68     130/  4/  5 1018.6R
KEWAUNEE LAKESHO 1954   70      40/  6/  9 1018.3R
SHEBOYGAN LAKESH 2000   65      20/ 12/ 14 1018.5S
PORT WASHINGTON  1940   69      50/ 12/ 16 1019.6S
ATWATER BUOY     1909   65 68   30/ 14/ 17 1018.7
MILWAUKEE LAKESH 2000   65      30/ 14/ 17   N/A
S MID LAKE BUOY  1950   67 70   10/ 12/ 14 1017.6F   4/ 7
KENOSHA   LAKESH 2000   66      20/ 14/ 17 1018.3
$$

TC  - TEMPERATURE IN CELSIUS
VSB - VISIBILITY IN STATUTE MILES
WCI - WIND CHILL INDEX
HX  - HEAT INDEX





USA.gov is the U.S. government's official web portal to all federal, state and local government web resources and services.